Regional Weather Roundup
Issued by NWS

Home | Current Version | Previous Version | Graphics & Text | Print | Product List | Glossary Off
Versions: 1 2 3 4 5 6 7 8 9 10 11 12 13 14 15 16 17 18 19 20 21 22 23 24 25 26 27 28 29 30 31 32 33 34 35 36 37 38 39 40 41 42 43 44 45 46 47 48 49 50

000
ASUS43 KLMK 061810
RWRKY
KENTUCKY REGIONAL WEATHER ROUNDUP
NATIONAL WEATHER SERVICE LOUISVILLE KY
100 PM EST TUE DEC 06 2016

NOTE "FAIR" INDICATES FEW OR NO CLOUDS BELOW 12,000 FEET
WITH NO SIGNIFICANT WEATHER AND/OR OBSTRUCTIONS TO VISIBILITY.

KYZ001>023-026-027-061>063-070>075-061900-
WESTERN AND SOUTH CENTRAL KENTUCKY

CITY           SKY/WX    TMP DP  RH WIND       PRES   REMARKS
PADUCAH        CLOUDY    44  38  79 NW14      29.85R
HENDERSON      CLOUDY    45  39  81 NW14      29.78S
OWENSBORO      CLOUDY    44  42  93 NW17G28   29.78R FOG
HOPKINSVILLE   CLOUDY    45  44  99 NW13      29.78R
BOWLING GREEN  LGT RAIN  48  45  89 NW8       29.74R
GLASGOW        DRIZZLE  N/A N/A N/A W7        29.70R
$$

KYZ024-025-028>034-038-045-046-053-061900-
NORTH CENTRAL KENTUCKY

CITY           SKY/WX    TMP DP  RH WIND       PRES   REMARKS
LOUISVILLE/SDF CLOUDY    46  42  86 NW6       29.68F
LOUISVILLE/LOU CLOUDY    45  42  89 NW6       29.69S
FORT KNOX      CLOUDY    44  44  99 NW12      29.67S
$$

KYZ035>037-039>044-047>052-055>060-089>105-061900-
NORTHEAST KENTUCKY

CITY           SKY/WX    TMP DP  RH WIND       PRES   REMARKS
LEXINGTON      LGT RAIN  49  47  93 W9        29.64S FOG
COVINGTON      LGT RAIN  41  40  96 NW9       29.66S FOG
FRANKFORT      LGT RAIN  46  43  89 NW5       29.64F FOG
$$

KYZ054-064>069-076>088-106>120-061900-
SOUTHEAST KENTUCKY

CITY           SKY/WX    TMP DP  RH WIND       PRES   REMARKS
JACKSON        HVY RAIN  52  50  93 W9        29.67R FOG
LONDON         LGT RAIN  52  50  93 SW7       29.67R FOG
SOMERSET       DRIZZLE   52  52 100 CALM      29.68F
MIDDLESBORO    LGT RAIN  49  49 100 CALM      29.70F
MONTICELLO     CLOUDY    53  52  96 W8        29.68F
$$





USA.gov is the U.S. government's official web portal to all federal, state and local government web resources and services.